Regional Weather Roundup
Issued by NWS Cleveland, OH

Home | Current Version | Previous Version | Graphics & Text | Print | Product List | Glossary On
Versions: 1 2 3 4 5 6 7 8 9 10 11 12 13 14 15 16 17 18 19 20 21 22 23 24 25 26 27 28 29 30 31 32 33 34 35 36 37 38 39 40 41 42 43 44 45 46 47 48 49 50
000
ASUS41 KCLE 251310
RWRCLE
OHIO REGIONAL WEATHER ROUNDUP
NATIONAL WEATHER SERVICE CLEVELAND, OH
900 AM EDT SAT OCT 25 2014

NOTE: "FAIR" INDICATES FEW OR NO CLOUDS BELOW 12,000 FEET WITH NO
SIGNIFICANT WEATHER AND/OR OBSTRUCTIONS TO VISIBILITY.

OHZ001>008-015>018-024>027-034-035-043-044-251400-
   NORTHWEST OHIO

CITY           SKY/WX    TMP DP  RH WIND       PRES   REMARKS
DEFIANCE       MOCLDY    55  51  86 SW6       29.90F FOG
FINDLAY        CLOUDY    57  50  77 SW10      29.91R HAZE
TOLEDO EXPRESS MOCLDY    53  50  89 SW8       29.88S FOG
TOLEDO EXEC    PTSUNNY   53  49  86 SW10      29.89S
LIMA           PTSUNNY   55  49  80 SW8       29.93S
$$

OHZ009>014-019>023-028>033-038-089-251400-
   NORTHEAST OHIO

CITY           SKY/WX    TMP DP  RH WIND       PRES   REMARKS
CLE-HOPKINS    CLOUDY    53  47  79 SW8       29.92F
CLE-LAKEFRONT  CLOUDY    56  48  74 S14G21    29.88F
CUY CO. ARPT   CLOUDY    57  52  82 SW12      29.90S
LORAIN-ELYRIA  CLOUDY    51  47  86 SW9       29.91S
ASHTABULA      CLOUDY    52  45  77 SW9       29.88F
AKRON-CANTON   PTSUNNY   47  42  83 SW6       29.93F
WOOSTER        CLOUDY    50  44  80 SW5       29.94S
MANSFIELD      CLOUDY    54  50  86 SW9       29.93S
YOUNGSTOWN     PTSUNNY   49  42  77 S8        29.91F
$$

OHZ042-051>053-060>062-070>072-077>081-251400-
  SOUTHWEST OHIO

CITY           SKY/WX    TMP DP  RH WIND       PRES   REMARKS
CINC-COVINGTON CLOUDY    53  47  79 SW9       29.99S
CINC-LUNKEN    CLOUDY    47  45  93 CALM      30.01S FOG
HAMILTON       CLOUDY    51  48  89 CALM      30.00S FOG
DAYTON         CLOUDY    53  48  83 S12       29.96F
WRIGHT-PAT AFB CLOUDY    50  47  90 S5        29.97S
DAYTON GENERAL CLOUDY    51  48  89 S6        29.98R
WILMINGTON     PTSUNNY   50  46  86 SW7       29.99S FOG
$$

OHZ036-037-039>041-045>050-054>059-063>069-073>076-082>088-251400-
  CENTRAL AND SOUTHEAST OHIO

CITY           SKY/WX    TMP DP  RH WIND       PRES   REMARKS
COLUMBUS       MOSUNNY   47  41  80 S3        29.98R
OSU AIRPORT    CLOUDY    51  46  83 SW8       29.96S
BOLTON FIELD   MOSUNNY   48  46  93 S7        29.97S
RICKENBACK AFB SUNNY     46  43  88 S6        29.98R
NEWARK         SUNNY     47  43  86 SW5       29.97R
MARION         CLOUDY    52  47  83 S8        29.94S HAZE
LANCASTER      SUNNY     51  45  79 S3        29.98S
ZANESVILLE     SUNNY     43  40  89 SW6       29.98R
NEW PHILLY     MOSUNNY   45  41  86 SE5       29.97S
$$



USA.gov is the U.S. government's official web portal to all federal, state and local government web resources and services.